DW6345 Murcia ES current weather conditions

sailwx.info

Wind from 037 at 5 knots gusting 7

Air temperature 23.9° C
Dewpoint 20.0° C

Last reported at 2019-Sep-20 09:10 UTC.
Time now 2019-Sep-20 09:58 UTC

Location: N 37°60' W 001°06'.
View on Google Maps.

See reports from other nearby stations

  
Tides and Currents Weather Stations Pressure Air Temp Water Temp Dewpoint Dewpoint Depression Visibility Wind Speed Wind Dir Waves Ship Positions
date/time (UTC)wind fromknots sea level pressurealtimeterstation pressurevisibilityair tempwater tempwave heightnotes
2019-Sep-20 09:10 037 5 gusting 7 23.9
2019-Sep-20 09:05 039 5 gusting 11 23.9
2019-Sep-20 09:00 059 4 gusting 10 23.9
2019-Sep-20 08:55 079 4 gusting 11 23.9
2019-Sep-20 08:50 015 4 gusting 11 23.9
2019-Sep-20 08:45 016 4 gusting 10 23.9
2019-Sep-20 08:40 058 3 gusting 7 23.9
2019-Sep-20 08:35 057 2 gusting 7 23.3
2019-Sep-20 08:30 339 2 gusting 5 23.3
2019-Sep-20 08:25 059 2 gusting 6 23.3
2019-Sep-20 08:20 037 2 gusting 5 23.3
2019-Sep-20 08:15 330 1 gusting 5 22.8
2019-Sep-20 08:10 077 1 gusting 5 22.8
2019-Sep-20 08:05 308 0 gusting 4 22.8
2019-Sep-20 08:00 191 1 gusting 1 22.8
2019-Sep-20 07:55 191 1 gusting 2 22.8
2019-Sep-20 07:50 191 1 gusting 4 22.8
2019-Sep-20 07:45 165 1 gusting 4 22.8
2019-Sep-20 07:40 156 1 gusting 4 22.2
2019-Sep-20 07:35 159 1 gusting 4 22.2
2019-Sep-20 07:30 152 1 gusting 4 22.2
2019-Sep-20 07:25 159 1 gusting 4 22.2
2019-Sep-20 07:20 182 0 gusting 4 22.2
2019-Sep-20 07:15 169 22.2
2019-Sep-20 07:10 024 0 gusting 1 22.2
2019-Sep-20 07:05 024 0 gusting 1 22.2
2019-Sep-20 07:00 024 0 gusting 2 22.2
2019-Sep-20 06:55 023 22.2
2019-Sep-20 06:50 023 0 gusting 2 22.2
2019-Sep-20 06:45 023 0 gusting 0 22.2
2019-Sep-20 06:40 023 0 gusting 2 22.2
2019-Sep-20 06:35 023 22.2
2019-Sep-20 06:30 023 0 gusting 1 21.7
2019-Sep-20 06:25 023 0 21.7
2019-Sep-20 06:20 023 1 gusting 1 21.7
2019-Sep-20 06:15 023 1 gusting 2 21.7
2019-Sep-20 06:10 023 1 gusting 1 21.7
2019-Sep-20 06:05 023 1 gusting 2 21.7
2019-Sep-20 06:00 024 1 gusting 4 21.7
2019-Sep-20 05:55 017 1 gusting 4 21.7
2019-Sep-20 05:50 070 1 gusting 4 21.7
2019-Sep-20 05:45 075 1 gusting 4 21.7
2019-Sep-20 05:40 078 2 gusting 2 21.7
2019-Sep-20 05:35 080 2 gusting 2 21.7
2019-Sep-20 05:30 059 2 gusting 5 21.7
2019-Sep-20 05:25 041 1 gusting 4 21.7
2019-Sep-20 05:20 033 1 gusting 4 21.7
2019-Sep-20 05:15 030 1 gusting 2 22.2
2019-Sep-20 05:10 030 0 gusting 4 22.2
2019-Sep-20 05:05 076 22.2
2019-Sep-20 05:00 138 0 gusting 1 22.2
2019-Sep-20 04:55 138 1 gusting 1 21.7
2019-Sep-20 04:50 138 1 gusting 2 21.7
2019-Sep-20 04:45 138 1 gusting 4 21.7
2019-Sep-20 04:40 106 0 gusting 5 22.2
2019-Sep-20 04:35 121 22.2
2019-Sep-20 04:30 192 0 gusting 1 22.2
2019-Sep-20 04:25 192 1 gusting 1 22.2
2019-Sep-20 04:20 192 1 gusting 1 22.2
2019-Sep-20 04:15 192 0 gusting 2 22.2
2019-Sep-20 04:10 192 0 gusting 1 22.2
2019-Sep-20 04:05 192 0 gusting 1 22.2
2019-Sep-20 04:00 192 0 gusting 1 22.2
2019-Sep-20 03:55 192 0 gusting 1 22.2
2019-Sep-20 03:50 192 0 gusting 2 22.2
2019-Sep-20 03:45 192 0 gusting 1 22.2
2019-Sep-20 03:40 192 0 gusting 1 22.2
2019-Sep-20 03:35 192 0 gusting 1 22.2
2019-Sep-20 03:30 192 1 gusting 1 22.2
2019-Sep-20 03:25 192 1 gusting 2 22.2
2019-Sep-20 03:20 192 1 gusting 4 22.2
2019-Sep-20 03:15 192 1 gusting 4 22.2
2019-Sep-20 03:10 179 1 gusting 4 22.2
2019-Sep-20 03:05 169 1 gusting 2 22.2
2019-Sep-20 03:00 169 1 gusting 4 22.2
2019-Sep-20 02:55 170 1 gusting 4 22.2
2019-Sep-20 02:50 165 1 gusting 2 22.2
2019-Sep-20 02:45 112 1 gusting 2 22.2
2019-Sep-20 02:40 112 1 gusting 2 22.2
2019-Sep-20 02:35 105 1 gusting 2 22.2
2019-Sep-20 02:30 090 1 gusting 1 22.2
2019-Sep-20 02:25 090 1 gusting 1 22.2
2019-Sep-20 02:20 090 1 gusting 2 22.2
2019-Sep-20 02:15 090 1 gusting 2 22.2
2019-Sep-20 02:10 090 1 gusting 1 22.2
2019-Sep-20 02:05 090 1 gusting 2 22.2
2019-Sep-20 02:00 090 1 gusting 2 22.2
2019-Sep-20 01:55 090 1 gusting 2 22.2
2019-Sep-20 01:50 090 1 gusting 1 22.2
2019-Sep-20 01:45 090 0 gusting 4 22.2
2019-Sep-20 01:40 312 0 gusting 1 22.8
2019-Sep-20 01:35 312 22.2
2019-Sep-20 01:30 313 22.8
2019-Sep-20 01:25 313 22.8
2019-Sep-20 01:20 187 0 gusting 0 22.8
2019-Sep-20 01:15 187 0 gusting 1 22.2
2019-Sep-20 01:10 187 0 gusting 1 22.2
2019-Sep-20 01:05 187 22.2
2019-Sep-20 01:00 187 0 gusting 1 22.2
2019-Sep-20 00:55 187 1 gusting 1 22.2
2019-Sep-20 00:50 187 1 gusting 2 22.2
2019-Sep-20 00:45 187 1 gusting 4 22.2
2019-Sep-20 00:40 185 1 gusting 4 22.2
2019-Sep-20 00:35 150 1 gusting 2 22.2
2019-Sep-20 00:30 150 1 gusting 2 22.2
2019-Sep-20 00:25 150 1 gusting 4 22.2
2019-Sep-20 00:20 150 1 gusting 4 22.8
2019-Sep-20 00:15 150 0 gusting 2 22.8
2019-Sep-20 00:10 150 1 gusting 1 22.8
2019-Sep-20 00:05 150 1 gusting 1 22.8
2019-Sep-20 00:00 150 0 gusting 4 22.8
2019-Sep-19 23:55 177 22.8
2019-Sep-19 23:50 299 22.8
2019-Sep-19 23:45 299 22.8
2019-Sep-19 23:40 299 22.8
2019-Sep-19 23:35 299 22.8
2019-Sep-19 23:30 299 0 gusting 1 22.2
2019-Sep-19 23:25 299 1 gusting 1 22.2
2019-Sep-19 23:20 299 1 gusting 4 22.2
2019-Sep-19 23:15 299 1 gusting 4 22.2
2019-Sep-19 23:10 299 1 gusting 2 22.8
2019-Sep-19 23:05 299 1 gusting 2 22.8
2019-Sep-19 23:00 298 1 gusting 4 22.8
2019-Sep-19 22:55 281 1 gusting 4 22.8
2019-Sep-19 22:50 302 0 gusting 4 22.8
2019-Sep-19 22:45 319 22.8
2019-Sep-19 22:40 025 0 gusting 0 22.8
2019-Sep-19 22:35 031 0 gusting 1 22.8
2019-Sep-19 22:30 031 1 gusting 2 22.8
2019-Sep-19 22:25 031 1 gusting 1 22.8
2019-Sep-19 22:20 031 0 gusting 1 22.8
2019-Sep-19 22:15 031 22.8
2019-Sep-19 22:10 032 0 gusting 1 22.8
2019-Sep-19 22:05 032 0 gusting 1 22.8
2019-Sep-19 22:00 032 1 gusting 1 22.8
2019-Sep-19 21:55 032 1 gusting 2 22.8
2019-Sep-19 21:50 032 1 gusting 2 22.8
2019-Sep-19 21:45 031 1 gusting 4 22.8
2019-Sep-19 21:40 031 1 gusting 2 22.8
2019-Sep-19 21:35 055 1 gusting 4 22.8
2019-Sep-19 21:30 059 1 gusting 4 22.8
2019-Sep-19 21:25 039 1 gusting 4 22.8
2019-Sep-19 21:20 028 1 gusting 2 22.8
2019-Sep-19 21:15 357 1 gusting 4 22.8
2019-Sep-19 21:10 336 1 gusting 2 22.8
2019-Sep-19 21:05 336 1 gusting 2 22.8
2019-Sep-19 21:00 027 2 gusting 2 22.8
2019-Sep-19 20:55 015 2 gusting 4 22.8
2019-Sep-19 20:50 041 2 gusting 5 22.8
2019-Sep-19 20:45 043 1 gusting 4 22.8
2019-Sep-19 20:40 047 1 gusting 4 23.3
2019-Sep-19 20:35 051 1 gusting 4 23.3
2019-Sep-19 20:30 051 2 gusting 4 23.3
2019-Sep-19 20:25 036 2 gusting 4 23.3
2019-Sep-19 20:20 055 2 gusting 5 23.3
2019-Sep-19 20:15 038 1 gusting 4 23.3
2019-Sep-19 20:10 056 1 gusting 6 23.3
2019-Sep-19 20:05 039 1 gusting 6 23.3
2019-Sep-19 20:00 052 3 gusting 4 23.3
2019-Sep-19 19:55 026 4 gusting 4 23.3
2019-Sep-19 19:50 071 4 gusting 6 23.3
2019-Sep-19 19:45 040 4 gusting 6 23.3
2019-Sep-19 19:40 069 4 gusting 6 23.3
2019-Sep-19 19:35 048 5 gusting 6 23.9
2019-Sep-19 19:30 046 5 gusting 6 23.9
2019-Sep-19 19:25 044 5 gusting 7 23.9
2019-Sep-19 19:20 043 4 gusting 7 23.9
2019-Sep-19 19:15 037 4 gusting 7 23.9
2019-Sep-19 19:10 043 5 gusting 6 23.9
2019-Sep-19 19:05 041 5 gusting 7 23.9
2019-Sep-19 19:00 042 5 gusting 6 24.4
2019-Sep-19 18:55 054 5 gusting 7 24.4
2019-Sep-19 18:50 039 4 gusting 7 24.4
2019-Sep-19 18:45 056 4 gusting 8 24.4
2019-Sep-19 18:40 046 5 gusting 7 24.4
2019-Sep-19 18:35 055 5 gusting 7 24.4
2019-Sep-19 18:30 061 6 gusting 7 24.4
2019-Sep-19 18:25 049 6 gusting 10 24.4
2019-Sep-19 18:20 046 6 gusting 10 25.0
2019-Sep-19 18:15 044 6 gusting 11 25.0
2019-Sep-19 18:10 039 6 gusting 12 25.0
2019-Sep-19 18:05 044 6 gusting 11 25.0
2019-Sep-19 18:00 030 6 gusting 10 25.6
2019-Sep-19 17:55 044 6 gusting 10 25.6
2019-Sep-19 17:50 042 6 gusting 10 25.6
2019-Sep-19 17:45 046 6 gusting 8 25.6
2019-Sep-19 17:40 037 6 gusting 11 26.1
2019-Sep-19 17:35 035 6 gusting 11 26.1
2019-Sep-19 17:30 052 6 gusting 12 26.1
2019-Sep-19 17:25 035 6 gusting 11 26.7
2019-Sep-19 17:20 033 6 gusting 8 26.7
2019-Sep-19 17:15 052 6 gusting 7 26.7
2019-Sep-19 17:10 052 6 gusting 8 26.7
2019-Sep-19 17:05 057 6 gusting 10 27.2
2019-Sep-19 17:00 035 6 gusting 11 27.2
2019-Sep-19 16:55 043 6 gusting 10 27.2
2019-Sep-19 16:50 050 6 gusting 11 27.2
2019-Sep-19 16:45 076 6 gusting 11 27.2
2019-Sep-19 16:40 041 6 gusting 10 27.8
2019-Sep-19 16:35 055 6 gusting 10 27.8
2019-Sep-19 16:30 024 6 gusting 11 27.8
2019-Sep-19 16:25 054 6 gusting 12 27.8
2019-Sep-19 16:20 043 6 gusting 10 27.8
2019-Sep-19 16:15 067 6 gusting 11 27.8
2019-Sep-19 16:10 034 6 gusting 10 27.8
2019-Sep-19 16:05 044 6 gusting 12 27.8
2019-Sep-19 16:00 037 6 gusting 12 27.8
2019-Sep-19 15:55 054 6 gusting 12 27.8
2019-Sep-19 15:50 044 5 gusting 10 27.8
2019-Sep-19 15:45 041 5 gusting 10 27.8
2019-Sep-19 15:40 044 5 gusting 8 27.8
2019-Sep-19 15:35 066 5 gusting 8 27.8
2019-Sep-19 15:30 057 6 gusting 8 27.8
2019-Sep-19 15:25 031 6 gusting 8 27.8
2019-Sep-19 15:20 068 6 gusting 11 27.8
2019-Sep-19 15:15 052 6 gusting 13 28.3
2019-Sep-19 15:10 059 6 gusting 13 27.8
2019-Sep-19 15:05 032 6 gusting 13 28.3
2019-Sep-19 15:00 047 6 gusting 8 28.3
2019-Sep-19 14:55 047 6 gusting 10 27.8
2019-Sep-19 14:50 030 6 gusting 13 27.8
2019-Sep-19 14:45 046 6 gusting 12 28.3
2019-Sep-19 14:40 009 6 gusting 7 28.3
2019-Sep-19 14:35 044 6 gusting 12 27.8
2019-Sep-19 14:30 029 6 gusting 12 28.3
2019-Sep-19 14:25 050 6 gusting 11 28.3
2019-Sep-19 14:20 055 6 gusting 13 28.3
2019-Sep-19 14:15 067 6 gusting 10 27.8
2019-Sep-19 14:10 048 6 gusting 11 27.8
2019-Sep-19 14:05 028 6 gusting 11 27.8
2019-Sep-19 14:00 056 6 gusting 10 27.8
2019-Sep-19 13:55 039 6 gusting 13 27.8
2019-Sep-19 13:50 033 6 gusting 13 27.8
2019-Sep-19 13:45 057 6 gusting 7 27.8
2019-Sep-19 13:40 049 6 gusting 10 27.8
2019-Sep-19 13:35 057 6 gusting 12 27.8
2019-Sep-19 13:30 057 7 gusting 13 27.8
2019-Sep-19 13:25 044 7 gusting 11 27.8
2019-Sep-19 13:20 033 7 gusting 13 27.8
2019-Sep-19 13:15 016 7 gusting 13 27.8
2019-Sep-19 13:10 035 7 gusting 14 27.8
2019-Sep-19 13:05 032 6 gusting 13 27.8
2019-Sep-19 13:00 044 6 gusting 12 27.8
2019-Sep-19 12:55 046 6 gusting 14 27.8
2019-Sep-19 12:50 051 6 gusting 12 27.8
2019-Sep-19 12:45 066 6 gusting 13 27.8
2019-Sep-19 12:40 073 6 gusting 13 27.8
2019-Sep-19 12:35 037 6 gusting 13 27.8
2019-Sep-19 12:30 041 6 gusting 11 27.8
2019-Sep-19 12:25 029 6 gusting 11 27.8
2019-Sep-19 12:20 062 6 gusting 13 27.2
2019-Sep-19 12:15 043 6 gusting 13 27.2
2019-Sep-19 12:10 080 6 gusting 11 27.2
2019-Sep-19 12:05 047 6 gusting 13 27.2
2019-Sep-19 12:00 043 6 gusting 11 27.2
2019-Sep-19 11:55 105 6 gusting 8 27.2
2019-Sep-19 11:50 040 6 gusting 11 27.2
2019-Sep-19 11:45 055 6 gusting 10 27.2
2019-Sep-19 11:40 030 6 gusting 10 27.2
2019-Sep-19 11:35 035 6 gusting 11 27.2
2019-Sep-19 11:30 038 6 gusting 12 27.2
2019-Sep-19 11:25 017 6 gusting 11 26.7
2019-Sep-19 11:20 030 6 gusting 13 26.7
2019-Sep-19 11:15 035 5 gusting 12 26.7
2019-Sep-19 11:10 020 5 gusting 8 26.7
2019-Sep-19 11:05 057 5 gusting 10 26.7
2019-Sep-19 11:00 077 5 gusting 6 26.7
2019-Sep-19 10:55 038 6 gusting 8 26.7
2019-Sep-19 10:50 040 5 gusting 10 26.7
2019-Sep-19 10:45 035 5 gusting 10 26.7
2019-Sep-19 10:40 043 4 gusting 6 26.7
2019-Sep-19 10:35 049 4 gusting 10 26.1
2019-Sep-19 10:30 057 4 gusting 8 26.1
2019-Sep-19 10:25 047 5 gusting 8 26.1
2019-Sep-19 10:20 072 4 gusting 7 26.1
2019-Sep-19 10:15 039 4 gusting 8 26.1
2019-Sep-19 10:10 013 2 gusting 5 26.1
2019-Sep-19 10:05 047 2 gusting 6 26.1
2019-Sep-19 10:00 035 2 gusting 7 26.1
2019-Sep-19 09:55 323 2 gusting 5 26.1
2019-Sep-19 09:50 026 2 gusting 6 26.1
2019-Sep-19 09:45 055 1 gusting 6 26.1
2019-Sep-19 09:40 054 1 gusting 4 26.1
2019-Sep-19 09:35 053 1 gusting 4 26.1
2019-Sep-19 09:30 082 1 gusting 4 26.1
2019-Sep-19 09:25 275 1 gusting 1 25.6
2019-Sep-19 09:20 284 1 gusting 4 25.0
2019-Sep-19 09:15 257 1 gusting 4 25.0
2019-Sep-19 09:10 288 1 gusting 5 25.0
2019-Sep-19 09:05 282 1 gusting 4 25.0
2019-Sep-19 09:00 271 1 gusting 4 24.4
2019-Sep-19 08:55 281 1 gusting 4 25.0
2019-Sep-19 08:50 264 1 gusting 4 24.4
2019-Sep-19 08:45 055 1 gusting 2 24.4
2019-Sep-19 08:40 314 1 gusting 4 24.4
2019-Sep-19 08:35 346 1 gusting 2 23.9
2019-Sep-19 08:30 243 1 gusting 2 23.9
2019-Sep-19 08:25 124 1 gusting 2 23.3
2019-Sep-19 08:20 219 1 gusting 4 23.3
2019-Sep-19 08:15 173 1 gusting 4 23.3
2019-Sep-19 08:10 282 1 gusting 4 23.3
2019-Sep-19 08:05 289 0 gusting 2 23.3
2019-Sep-19 08:00 289 0 gusting 4 23.3
2019-Sep-19 07:55 275 23.3
2019-Sep-19 07:50 135 0 gusting 1 22.8
2019-Sep-19 07:45 135 0 gusting 1 22.2
2019-Sep-19 07:40 135 1 gusting 1 22.2
2019-Sep-19 07:35 135 1 gusting 1 22.2
2019-Sep-19 07:30 135 1 gusting 1 21.7
2019-Sep-19 07:25 135 1 gusting 2 21.7
2019-Sep-19 07:20 143 1 gusting 4 21.7
2019-Sep-19 07:15 149 0 gusting 2 21.1
2019-Sep-19 07:10 271 1 gusting 1 21.1
2019-Sep-19 07:05 271 1 gusting 1 20.6
2019-Sep-19 07:00 271 1 gusting 4 20.6
2019-Sep-19 06:55 288 0 gusting 4 20.6
2019-Sep-19 06:50 283 1 gusting 2 20.6
2019-Sep-19 06:45 283 1 gusting 1 20.6
2019-Sep-19 06:40 283 2 gusting 2 20.6
2019-Sep-19 06:35 283 2 gusting 2 20.6
2019-Sep-19 06:30 283 2 gusting 6 20.6
2019-Sep-19 06:25 257 1 gusting 6 20.6
2019-Sep-19 06:20 260 2 gusting 5 20.6
2019-Sep-19 06:15 242 2 gusting 4 20.6
2019-Sep-19 06:10 235 2 gusting 5 20.6
2019-Sep-19 06:05 225 2 gusting 5 20.6
2019-Sep-19 06:00 238 4 gusting 4 20.6
2019-Sep-19 05:55 228 5 gusting 6 20.6
2019-Sep-19 05:50 251 4 gusting 6 20.6
2019-Sep-19 05:45 240 4 gusting 8 20.6
2019-Sep-19 05:40 229 4 gusting 8 20.6
2019-Sep-19 05:35 247 4 gusting 7 20.6
2019-Sep-19 05:30 224 4 gusting 6 20.0
2019-Sep-19 05:25 208 4 gusting 6 20.0
2019-Sep-19 05:20 205 4 gusting 6 20.0
2019-Sep-19 05:15 224 4 gusting 5 20.0
2019-Sep-19 05:10 218 4 gusting 5 20.0
2019-Sep-19 05:05 210 4 gusting 6 20.0
2019-Sep-19 05:00 188 4 gusting 6 20.0
2019-Sep-19 04:55 184 4 gusting 5 20.0
2019-Sep-19 04:50 204 4 gusting 5 20.0
2019-Sep-19 04:45 184 4 gusting 5 20.0
2019-Sep-19 04:40 180 2 gusting 6 20.0
2019-Sep-19 04:35 162 2 gusting 5 20.0
2019-Sep-19 04:30 149 2 gusting 5 20.0
2019-Sep-19 04:25 171 1 gusting 4 20.6
2019-Sep-19 04:20 154 1 gusting 4 20.6
2019-Sep-19 04:15 174 1 gusting 2 20.6
2019-Sep-19 04:10 163 1 gusting 4 20.6
2019-Sep-19 04:05 157 1 gusting 4 20.6
2019-Sep-19 04:00 174 0 gusting 2 20.6
2019-Sep-19 03:55 174 20.6
2019-Sep-19 03:50 175 20.6
2019-Sep-19 03:45 175 20.6
2019-Sep-19 03:40 175 20.6
2019-Sep-19 03:35 175 20.6
2019-Sep-19 03:30 175 0 20.6
2019-Sep-19 03:25 175 0 gusting 1 20.6
2019-Sep-19 03:20 175 0 gusting 1 20.6
2019-Sep-19 03:15 175 0 gusting 1 20.6
2019-Sep-19 03:10 175 1 gusting 1 21.1
2019-Sep-19 03:05 175 1 gusting 2 21.1
2019-Sep-19 03:00 175 1 gusting 2 21.1
2019-Sep-19 02:55 175 1 gusting 2 21.1
2019-Sep-19 02:50 175 1 gusting 4 21.1
2019-Sep-19 02:45 164 1 gusting 4 21.1
2019-Sep-19 02:40 145 1 gusting 2 21.1
2019-Sep-19 02:35 141 0 gusting 2 21.1
2019-Sep-19 02:30 140 0 gusting 2 21.1
2019-Sep-19 02:25 140 21.1
2019-Sep-19 02:20 140 0 gusting 1 21.1
2019-Sep-19 02:15 140 1 gusting 1 21.1
2019-Sep-19 02:10 140 1 gusting 2 21.1
2019-Sep-19 02:05 140 0 gusting 2 21.1
2019-Sep-19 02:00 140 0 gusting 1 21.1
2019-Sep-19 01:55 140 21.1
2019-Sep-19 01:50 140 21.1
2019-Sep-19 01:45 140 21.1
2019-Sep-19 01:40 140 0 21.1
2019-Sep-19 01:35 140 1 21.1
2019-Sep-19 01:30 140 1 gusting 4 21.1
2019-Sep-19 01:25 133 0 gusting 4 21.1
2019-Sep-19 01:20 122 1 gusting 4 21.1
2019-Sep-19 01:15 138 1 gusting 1 21.1
2019-Sep-19 01:10 137 1 gusting 4 21.1
2019-Sep-19 01:05 128 1 gusting 4 21.1
2019-Sep-19 01:00 130 1 gusting 4 21.1
2019-Sep-19 00:55 136 1 gusting 2 21.1
2019-Sep-19 00:50 109 2 gusting 4 21.1
2019-Sep-19 00:45 137 2 gusting 4 21.1
2019-Sep-19 00:40 135 2 gusting 5 21.1
2019-Sep-19 00:35 133 1 gusting 5 21.1
2019-Sep-19 00:30 136 1 gusting 4 21.1
2019-Sep-19 00:25 139 1 gusting 4 21.1
2019-Sep-19 00:20 146 1 gusting 4 21.7
2019-Sep-19 00:15 125 1 gusting 4 21.7
2019-Sep-19 00:10 135 1 gusting 2 21.7
2019-Sep-19 00:05 135 1 gusting 2 21.7
2019-Sep-19 00:00 135 1 gusting 1 21.7
2019-Sep-18 23:55 135 1 gusting 4 21.7
2019-Sep-18 23:50 131 1 gusting 4 21.7
2019-Sep-18 23:45 118 1 gusting 2 21.7
2019-Sep-18 23:40 124 0 gusting 4 21.7
2019-Sep-18 23:35 126 22.2
2019-Sep-18 23:30 127 22.2
2019-Sep-18 23:20 127 22.2
2019-Sep-18 23:10 127 22.2
2019-Sep-18 23:05 126 22.2
2019-Sep-18 22:55 127 22.2
2019-Sep-18 22:50 126 0 22.2
2019-Sep-18 22:45 126 0 gusting 1 22.2
2019-Sep-18 22:40 127 1 gusting 1 22.2
2019-Sep-18 22:35 127 1 gusting 2 22.2
2019-Sep-18 22:30 126 1 gusting 5 22.2
2019-Sep-18 22:25 028 0 gusting 2 22.8
2019-Sep-18 22:20 017 0 gusting 1 22.8
2019-Sep-18 22:15 017 0 gusting 1 22.8
2019-Sep-18 22:10 018 0 gusting 1 22.8
2019-Sep-18 22:05 018 0 gusting 1 22.8
2019-Sep-18 22:00 018 1 gusting 2 22.8
2019-Sep-18 21:55 025 1 gusting 1 22.8
2019-Sep-18 21:50 050 2 gusting 2 22.8
2019-Sep-18 21:45 050 2 gusting 2 22.8
2019-Sep-18 21:40 054 3 gusting 4 22.8
2019-Sep-18 21:35 035 4 gusting 5 22.8
2019-Sep-18 21:30 066 2 gusting 6 22.8
2019-Sep-18 21:25 054 2 gusting 6 22.8
2019-Sep-18 21:20 045 2 gusting 5 22.8
2019-Sep-18 21:15 024 1 gusting 5 22.8
2019-Sep-18 19:50 046 2 gusting 6 23.9
2019-Sep-18 19:45 033 1 gusting 5 23.9
2019-Sep-18 19:40 027 2 gusting 4 23.9
2019-Sep-18 19:35 010 2 gusting 4 23.9
2019-Sep-18 19:30 338 3 gusting 5 24.4
2019-Sep-18 19:25 020 4 gusting 5 24.4
2019-Sep-18 18:30 047 5 gusting 6 25.6
2019-Sep-18 18:25 050 5 gusting 7 25.6
2019-Sep-18 18:20 036 5 gusting 7 26.1
2019-Sep-18 18:15 019 5 gusting 8 26.1
2019-Sep-18 18:10 039 4 gusting 6 26.1
2019-Sep-18 18:05 042 4 gusting 7 26.1
2019-Sep-18 18:00 052 3 gusting 8 26.7
2019-Sep-18 17:55 053 2 gusting 6 26.7
2019-Sep-18 17:50 047 3 gusting 6 27.2
2019-Sep-18 17:45 067 4 gusting 6 27.2
2019-Sep-18 17:40 068 4 gusting 7 27.2
2019-Sep-18 17:35 090 4 gusting 6 27.2
2019-Sep-18 17:30 097 4 gusting 6 27.2
2019-Sep-18 17:25 075 4 gusting 7 27.8
2019-Sep-18 17:20 089 5 gusting 7 27.8
2019-Sep-18 17:15 073 5 gusting 6 27.8
2019-Sep-18 17:10 103 5 gusting 8 27.8
2019-Sep-18 17:05 080 5 gusting 8 28.3
2019-Sep-18 17:00 084 5 gusting 8 28.3
2019-Sep-18 16:55 073 5 gusting 7 28.3
2019-Sep-18 16:50 093 5 gusting 6 28.9
2019-Sep-18 16:45 109 6 gusting 8 28.9
2019-Sep-18 16:40 081 6 gusting 10 28.9
2019-Sep-18 16:35 058 6 gusting 11 28.9
2019-Sep-18 16:30 053 6 gusting 8 28.9
2019-Sep-18 16:25 058 6 gusting 13 28.9
2019-Sep-18 16:20 048 6 gusting 12 28.9
2019-Sep-18 16:15 041 6 gusting 12 28.9
2019-Sep-18 16:10 060 6 gusting 11 28.9
2019-Sep-18 16:05 042 6 gusting 12 28.9
2019-Sep-18 16:00 060 6 gusting 11 28.9
2019-Sep-18 15:55 059 6 gusting 11 28.9
2019-Sep-18 15:50 066 5 gusting 11 29.4
2019-Sep-18 15:45 060 5 gusting 11 29.4
2019-Sep-18 15:40 037 6 gusting 7 29.4
2019-Sep-18 15:35 058 7 gusting 8 29.4
2019-Sep-18 15:30 051 7 gusting 12 28.9
2019-Sep-18 15:25 046 7 gusting 12 29.4
2019-Sep-18 15:20 038 7 gusting 13 29.4
2019-Sep-18 15:15 050 6 gusting 12 29.4
2019-Sep-18 15:10 029 6 gusting 13 29.4
2019-Sep-18 15:05 031 6 gusting 12 29.4
2019-Sep-18 15:00 063 6 gusting 13 29.4
2019-Sep-18 14:55 049 6 gusting 13 29.4
2019-Sep-18 14:50 043 5 gusting 11 30.0
2019-Sep-18 14:45 052 5 gusting 11 30.0
2019-Sep-18 14:40 005 5 gusting 8 30.0
2019-Sep-18 14:35 026 5 gusting 8 30.0
2019-Sep-18 14:30 023 4 gusting 8 30.0
2019-Sep-18 14:25 039 4 gusting 11 30.0
2019-Sep-18 14:20 070 4 gusting 6 30.0
2019-Sep-18 14:15 019 4 gusting 7 30.0
2019-Sep-18 14:10 061 4 gusting 6 30.0
2019-Sep-18 14:05 056 4 gusting 7 30.0
2019-Sep-18 14:00 019 4 gusting 6 30.0
2019-Sep-18 13:55 057 4 gusting 8 30.0
2019-Sep-18 13:50 055 4 gusting 6 30.0
2019-Sep-18 13:45 025 4 gusting 7 30.0
2019-Sep-18 13:40 031 4 gusting 8 30.0
2019-Sep-18 13:35 104 4 gusting 5 30.0
2019-Sep-18 13:30 058 3 gusting 6 30.0
2019-Sep-18 13:25 025 2 gusting 6 30.0
2019-Sep-18 13:20 087 3 gusting 6 30.0
2019-Sep-18 13:15 024 4 gusting 6 29.4
2019-Sep-18 13:10 075 4 gusting 7 29.4
2019-Sep-18 13:05 062 4 gusting 6 30.0
2019-Sep-18 13:00 019 4 gusting 6 30.0
2019-Sep-18 12:55 008 4 gusting 6 29.4
2019-Sep-18 12:50 034 4 gusting 6 29.4
2019-Sep-18 12:45 092 4 gusting 7 29.4
2019-Sep-18 12:40 042 4 gusting 7 29.4
2019-Sep-18 12:35 047 4 gusting 7 29.4
2019-Sep-18 12:30 014 4 gusting 5 29.4
2019-Sep-18 12:25 325 4 gusting 6 29.4
2019-Sep-18 12:20 306 4 gusting 6 29.4
2019-Sep-18 12:15 041 4 gusting 6 28.9
2019-Sep-18 12:10 046 2 gusting 6 28.9
2019-Sep-18 12:05 327 2 gusting 6 28.9
2019-Sep-18 12:00 342 3 gusting 6 28.9
2019-Sep-18 11:55 051 4 gusting 5 28.9
2019-Sep-18 11:50 017 2 gusting 8 28.9
2019-Sep-18 11:45 053 1 gusting 6 28.9
2019-Sep-18 11:40 081 3 gusting 5 28.9
2019-Sep-18 11:35 080 4 gusting 5 28.9
2019-Sep-18 11:30 132 2 gusting 6 28.3
2019-Sep-18 11:25 072 1 gusting 6 28.9
2019-Sep-18 11:20 010 2 gusting 5 28.9
2019-Sep-18 11:15 009 2 gusting 5 28.3
2019-Sep-18 11:10 195 2 gusting 6 28.3
2019-Sep-18 11:05 089 1 gusting 5 28.3
2019-Sep-18 11:00 117 2 gusting 5 28.3
2019-Sep-18 10:55 054 2 gusting 4 28.3
2019-Sep-18 10:50 006 2 gusting 5 27.8
2019-Sep-18 10:45 005 1 gusting 5 28.3
2019-Sep-18 10:40 077 1 gusting 4 27.8
2019-Sep-18 10:35 122 1 gusting 4 27.8
2019-Sep-18 10:30 238 2 gusting 4 27.2
2019-Sep-18 10:25 245 2 gusting 4 27.2
2019-Sep-18 10:20 137 2 gusting 4 27.2
2019-Sep-18 10:15 214 1 gusting 6 27.2
2019-Sep-18 10:10 093 1 gusting 5 27.2
2019-Sep-18 10:05 090 1 gusting 5 27.2
2019-Sep-18 10:00 199 1 gusting 4 26.7
2019-Sep-18 09:55 302 1 gusting 5 26.7
2019-Sep-18 09:50 294 2 gusting 5 26.1
2019-Sep-18 09:45 249 2 gusting 4 26.1
2019-Sep-18 09:40 255 1 gusting 5 26.1
2019-Sep-18 09:35 229 0 gusting 4 25.6
2019-Sep-18 09:30 265 1 gusting 6 25.6
2019-Sep-18 09:25 257 2 gusting 1 25.6
2019-Sep-18 09:20 246 2 gusting 5 25.0
2019-Sep-18 09:15 228 1 gusting 5 25.0
2019-Sep-18 09:10 211 2 gusting 5 25.0
2019-Sep-18 09:05 248 2 gusting 6 25.0
2019-Sep-18 09:00 238 2 gusting 4 24.4